Location: Courcelles
(49.0784°N, 2.0029°E)
Time: 05:35:39
(UTC+00:00)

Daily predictions for brighter satellites

Satellite Brightness Start Highest point End
(mag) Time Altitude Azimuth Time Altitude Azimuth Time Altitude Azimuth
EO 1 Delta rocket 3.9 00:04:08 42° SSW 00:05:37 67° W 00:10:42 10° NNW
Cosmos 2227 Rocket 2.1 00:01:24 10° NNW 00:07:05 75° WSW 00:09:27 36° SSE
Gbstr 26 Del rocket 4.1 00:01:40 10° WNW 00:07:08 47° SW 00:09:37 32° SSE
Cosmos 468 4.5 00:04:05 10° NNW 00:09:27 88° WSW 00:11:39 37° SSE
GEOS 3 Rocket 3.8 00:08:48 10° NE 00:14:03 72° NW 00:17:31 22° SW
Cosmos 1441 Rocket 2.9 00:20:22 62° WSW 00:20:43 68° WNW 00:24:10 10° N
Meteor 2-2 Rocket 4.2 00:19:50 10° NNW 00:25:29 87° W 00:28:00 35° S
Cosmos 2221 4.0 00:22:26 10° N 00:26:13 30° ENE 00:28:33 18° ESE
Cosmos 1655 Rocket 4.4 00:25:42 29° SW 00:29:01 59° WNW 00:35:21 10° N
Cosmos 1315 Rocket 3.0 00:26:04 10° NNW 00:29:47 50° W 00:30:17 46° SW
Okean 1 4.2 00:27:14 10° N 00:30:47 39° ENE 00:32:02 29° ESE
Cosmos 1244 Rocket 4.5 00:28:02 33° S 00:31:05 85° E 00:37:29 10° N
Cosmos 1125 Rocket 3.4 00:30:24 38° SSW 00:32:29 86° ESE 00:37:46 10° NNE
Cosmos 1812 Rocket 4.4 00:29:06 10° N 00:33:17 43° ENE 00:35:20 25° SE
Meteor 1-26 Rocket 4.0 00:29:01 10° NNW 00:34:25 83° W 00:36:45 36° S
Geosat 3.9 00:29:26 10° NNE 00:34:30 89° SE 00:36:36 36° SSW
Cosmos 1932 4.4 00:31:36 30° SW 00:34:58 88° SE 00:41:24 10° NE
Cosmos 1933 4.4 00:32:51 10° NNW 00:36:13 28° W 00:36:43 27° WSW
Nadezhda 1 Rocket 4.3 00:30:52 10° N 00:37:02 62° ENE 00:40:51 24° SSE
CENTAUR R/B 4.3 00:37:30 11° SE 00:40:00 14° ESE 00:43:13 10° ENE
H-2A R/B 2.6 00:41:17 36° SE 00:42:38 60° ENE 00:46:30 10° N
Cosmos 2058 Rocket 3.7 00:38:42 10° NNW 00:42:56 44° W 00:44:04 36° SW
BlueWalker 3 4.4 00:42:41 10° W 00:42:46 10° W 00:42:46 10° W
Cosmos 2322 Rocket 4.5 00:44:22 10° ESE 00:46:26 12° E 00:48:29 10° ENE
Cosmos 614 Rocket 3.9 00:41:51 10° NNW 00:46:53 71° WSW 00:48:54 36° S
Cosmos 1745 Rocket 4.4 00:44:17 26° SSE 00:47:48 58° E 00:54:01 10° NNE
ATLAS 5 CENTAUR R/B 3.3 00:46:08 10° NNW 00:49:59 34° NE 00:54:38 10° ESE
BREEZE-M DEB (TANK) 3.7 00:49:04 10° W 00:50:49 23° W 00:50:49 23° W
Cosmos 2263 Rocket 2.2 00:50:39 10° NW 00:56:12 60° WSW 00:58:41 32° S
CZ-2C R/B 2.8 00:57:16 10° NNE 01:02:03 88° WNW 01:04:01 36° SSW
Cosmos 192 4.3 01:00:29 36° SSW 01:02:31 89° WNW 01:07:29 10° NNE
USA 32 4.0 01:00:07 33° S 01:02:32 85° E 01:07:47 10° N
Cosmos 2082 3.6 00:57:10 10° NNW 01:02:52 82° WSW 01:06:25 24° SSE
Cosmos 2369 3.7 01:01:32 32° S 01:04:10 70° ESE 01:09:48 10° NNE
Cosmos 1602 Rocket 3.5 01:07:34 39° S 01:09:10 83° E 01:13:32 10° N
Cosmos 2298 Rocket 4.0 01:07:44 33° S 01:10:12 75° ESE 01:15:30 10° NNE
Cosmos 1758 Rocket 3.7 01:09:37 37° SSW 01:11:13 66° WNW 01:15:40 10° N
Cosmos 1626 Rocket 4.0 01:11:27 33° SW 01:13:02 51° WNW 01:17:20 10° N
SL-16 R/B 3.3 01:13:38 20° SSE 01:16:42 35° ESE 01:21:47 10° NE
Cosmos 2297 Rocket 4.3 01:16:46 10° W 01:17:15 10° W 01:17:43 10° W
Cosmos 2219 3.5 01:12:44 10° NW 01:18:13 50° WSW 01:20:47 29° SSW
Cosmos 2333 Rocket 3.9 01:15:34 13° SSE 01:19:09 24° ESE 01:23:33 10° NE
USA 290 3.2 01:16:46 10° NW 01:19:33 32° W 01:19:33 32° W
Meteor 1-10 Rocket 4.5 01:15:06 10° N 01:20:52 71° ENE 01:25:25 17° SSE
USA 276 4.4 01:22:20 12° ESE 01:22:20 12° ESE 01:22:46 10° ESE
Spot 2 3.8 01:20:18 34° S 01:21:58 80° WSW 01:25:58 10° NNW
BREEZE M DEB (TANK) 1.9 01:21:30 34° W 01:22:25 85° S 01:26:20 10° ESE
BREEZE-M DEB 4.5 01:05:20 10° W 01:23:04 88° N 01:27:21 10° E
ATLAS 2AS CENTAUR R/B 2.8 01:18:05 10° NW 01:24:37 52° WSW 01:29:12 20° S
Cosmos 44 Rocket 4.4 01:25:06 22° SSE 01:27:04 30° ESE 01:31:11 10° NE
Cosmos 1980 Rocket 2.7 01:25:56 22° SW 01:29:24 53° NW 01:34:56 10° NNE
Cosmos 921 Rocket 3.1 01:25:08 10° NNW 01:29:28 56° WSW 01:31:10 33° SSW
Cosmos 1743 3.4 01:28:38 26° SE 01:29:58 38° E 01:33:07 10° NNE
USA 215 4.2 01:30:25 23° SW 01:31:29 24° SW 01:36:38 10° WNW
NPP 4.0 01:28:42 10° NNE 01:34:03 57° ESE 01:37:31 21° S
Cosmos 1697 Rocket 4.3 01:30:11 10° WSW 01:35:01 28° NW 01:39:52 10° NNE
Meteor 1-20 Rocket 4.5 01:33:04 22° S 01:36:51 68° E 01:42:34 10° NNE
Cosmos 2151 2.9 01:35:22 33° SSW 01:37:07 74° W 01:41:16 10° N
Lacrosse 5 rocket 2.4 01:34:35 10° WNW 01:37:12 25° WSW 01:37:12 25° WSW
CZ-2C R/B 3.5 01:37:53 25° SW 01:40:17 35° W 01:45:24 10° NNW
Cosmos 1140 Rocket 3.9 01:36:13 10° NNW 01:41:21 62° ENE 01:46:29 10° SE
Resurs 1-4 Rocket 3.2 01:39:09 10° NNE 01:44:03 37° E 01:48:25 13° SSE
GENESIS II 4.5 01:44:58 28° W 01:45:47 35° NW 01:48:21 10° NNE
Cosmos 1076 Rocket 3.8 01:46:03 22° S 01:48:38 60° E 01:52:49 10° NNE
Landsat 4 4.3 01:49:58 24° W 01:49:58 24° W 01:52:10 10° NW
Cosmos 2227 Rocket 4.1 01:47:46 10° WNW 01:50:06 13° W 01:51:13 12° WSW
Cosmos 1844 Rocket 2.7 01:46:32 10° NNW 01:52:12 85° ENE 01:57:48 10° SSE
Cosmos 1238 Rocket 3.7 01:49:11 10° NNW 01:54:10 49° W 01:56:48 24° SSW
Cosmos 407 Rocket 4.5 01:51:08 10° NNW 01:56:13 48° ENE 02:01:20 10° SE
Cosmos 2227 4.2 01:50:37 10° NNW 01:56:18 74° WSW 02:02:00 10° SSE
Cosmos 1844 3.8 01:50:47 10° NNW 01:56:31 83° ENE 02:02:17 10° SSE
CZ-2D R/B 3.0 01:52:42 10° NNE 01:57:40 43° E 02:02:07 12° SSE
IDEFIX/ARIANE 42P 2.5 01:53:34 10° NNE 01:58:46 78° WNW 02:02:09 22° SSW
Meteor 1-19 Rocket 4.3 01:54:57 10° NNW 02:00:23 63° W 02:04:33 18° S
Cosmos 2237 4.2 01:58:13 22° SW 02:01:59 79° WNW 02:07:43 10° NNE
H-2A R/B 2.3 01:58:17 10° NNE 02:02:30 61° ESE 02:05:29 19° S
Cosmos 2221 3.6 01:59:35 10° NNW 02:03:17 29° W 02:04:55 22° SW
Cosmos 1953 Rocket 3.5 02:04:16 22° SSW 02:06:59 85° W 02:11:20 10° N
Cosmos 2360 Rocket 3.0 02:03:03 15° S 02:07:23 43° ESE 02:12:41 10° NE
SeaSat 1 2.4 02:03:09 10° SSE 02:08:03 89° ENE 02:13:00 10° NNW
Cosmos 1346 Rocket 2.9 02:09:59 25° SW 02:11:52 55° WNW 02:15:30 10° N
Cosmos 2278 3.7 02:08:06 20° SSW 02:12:05 85° ESE 02:17:47 10° NNE
Cosmos 1733 2.5 02:14:22 25° S 02:15:55 82° E 02:18:55 10° NNE
H-2A R/B 4.3 02:16:38 13° WSW 02:17:22 13° W 02:19:19 10° WNW
Cosmos 1269 Rocket 4.2 02:13:38 10° NNW 02:18:47 53° WSW 02:23:36 11° S
Molniya-1 4.0 02:19:20 21° SW 02:21:43 88° SE 02:30:15 10° NE
Cosmos 2219 Rocket 3.5 02:17:13 10° SSE 02:22:10 33° ESE 02:27:07 10° NE
H-2A R/B 4.1 02:21:37 10° NE 02:25:15 20° E 02:28:52 10° SE
Cosmos 2074 Rocket 4.1 02:19:36 11° S 02:25:31 77° E 02:31:46 10° NNE
Cosmos 1825 Rocket 4.5 02:22:59 18° SW 02:25:36 34° WNW 02:29:38 10° N
CENTAUR R/B 2.5 02:24:36 17° SSW 02:29:01 76° SE 02:36:05 10° NE
Cosmos 2322 Rocket 2.3 02:24:50 16° SSW 02:29:26 73° ESE 02:35:03 10° NNE
ADEOS II 2.5 02:25:25 10° NNE 02:30:36 59° E 02:35:46 10° S
ATLAS 5 CENTAUR R/B 2.0 02:28:34 10° NW 02:32:58 52° SW 02:38:24 10° SSE
ALOS 2.6 02:28:35 10° NNE 02:33:08 60° E 02:37:38 10° S
Meteor 1-18 Rocket 4.4 02:33:05 10° N 02:38:41 78° ENE 02:44:14 10° SSE
Cosmos 2251 Rocket 4.0 02:33:40 10° NNW 02:38:58 66° ENE 02:44:11 10° SSE
NOSS 3-2 (A) 3.8 02:37:39 12° S 02:42:03 45° ESE 02:47:42 10° NE
DMSP B5D2-2 4.3 02:38:04 10° SSE 02:43:17 76° ENE 02:48:31 10° NNW
Envisat 3.3 02:39:19 10° NNE 02:44:23 66° ESE 02:49:24 10° S
SL-23 DEB 3.6 02:42:39 10° W 02:45:46 71° NNW 02:49:30 10° ENE
Meteor 1-27 Rocket 4.4 02:40:45 10° NNW 02:46:16 41° W 02:51:37 10° SSW
SAR-Lupe-3 4.1 02:44:01 10° SSE 02:46:57 78° ENE 02:49:55 10° NNW
Cosmos 1190 Rocket 4.4 02:47:28 10° NNW 02:52:40 68° ENE 02:57:48 10° SSE
Cosmos 2181 Rocket 4.5 02:47:31 10° NNW 02:53:15 42° W 02:58:56 10° SSW
USA 276 1.6 02:51:56 15° WSW 02:54:05 67° SSE 02:56:34 10° E
NOAA 11 4.2 02:48:59 10° NNE 02:54:28 89° WNW 02:59:53 10° SSW
FENGYUN 3A 4.2 02:50:11 10° N 02:55:19 45° WNW 03:00:12 11° SW
SL-16 R/B 2.8 02:49:43 10° SSE 02:55:58 77° ENE 03:02:15 10° NNW
SL-16 R/B 2.8 02:55:28 11° SW 03:00:39 46° NW 03:06:08 10° NNE
Uosat 12 SS-18 rocket 4.2 02:57:37 12° SW 03:01:34 87° NW 03:06:29 10° NE
Meteor 2-10 4.2 02:57:40 10° S 03:02:50 72° E 03:07:54 10° NNE
Cosmos 1805 3.7 02:59:33 10° S 03:02:54 50° E 03:06:17 10° NNE
Cosmos 2333 Rocket 2.4 02:57:35 12° SW 03:02:56 65° WNW 03:08:37 10° NNE
Cosmos 1707 3.5 03:00:19 10° NW 03:03:04 25° W 03:05:36 11° SW
Cosmos 1743 4.5 03:02:13 10° WSW 03:04:12 15° WNW 03:06:11 10° NNW
Cosmos 44 Rocket 3.9 03:03:47 10° WSW 03:08:18 47° NW 03:12:55 10° NNE
Meteor 2-4 Rocket 4.1 03:04:18 10° NNW 03:09:18 40° W 03:14:14 10° SSW
Cosmos 1980 Rocket 4.4 03:11:40 10° WNW 03:14:46 15° NNW 03:17:53 10° N
Cosmos 1066 Rocket 4.3 03:11:51 10° NNW 03:17:04 53° W 03:22:14 10° S
CZ-2C R/B 3.9 03:16:18 10° NNE 03:21:00 37° E 03:25:44 10° SSE
Resurs 1-4 Rocket 2.9 03:18:58 10° N 03:23:49 37° WNW 03:28:40 10° SW
Nadezhda 3 Rocket 4.3 03:18:42 10° NNW 03:24:37 47° W 03:30:28 10° SSW
AQUA 3.8 03:20:09 10° NNE 03:24:52 78° WNW 03:29:33 10° SSW
COSMOS 2428 3.8 03:22:13 10° S 03:27:32 42° ESE 03:32:53 10° NE
SJ 16-02 2.0 03:26:58 10° NNW 03:31:14 61° ENE 03:35:27 10° SSE
